When you browse on this site, cookies collect data to enhance your experience and personalize the content and advertising you see.
Visit our Privacy Policy to learn more. By continuing to use the site, you agree to this use of cookies and data.

Meteo pe oră la Starachowice

Astăzi, 5 Iulie, Duminică

Timp Temperatura Precipitaţii Vânt Presiune Umiditate
00:00 +17°C° 0 mm 2 m/s 739 mmHg 76%
01:00 +16°C° 0 mm 2 m/s 739 mmHg 76%
02:00 +16°C° 0 mm 2 m/s 739 mmHg 79%
03:00 +16°C° 0 mm 2 m/s 738 mmHg 81%
04:00 +16°C° 0 mm 2 m/s 738 mmHg 84%
05:00 +18°C° 0 mm 2 m/s 738 mmHg 80%
06:00 +19°C° 0 mm 3 m/s 738 mmHg 75%
07:00 +21°C° 0 mm 3 m/s 739 mmHg 71%
08:00 +22°C° 0 mm 3 m/s 739 mmHg 67%
09:00 +25°C° 0 mm 3 m/s 739 mmHg 63%
10:00 +26°C° 0 mm 4 m/s 739 mmHg 59%
11:00 +27°C° 0 mm 4 m/s 739 mmHg 57%
12:00 +27°C° 0 mm 4 m/s 738 mmHg 56%
13:00 +28°C° 0 mm 4 m/s 738 mmHg 54%
14:00 +28°C° 0 mm 4 m/s 738 mmHg 55%
15:00 +28°C° 0 mm 4 m/s 737 mmHg 56%
16:00 +28°C° 0 mm 3 m/s 737 mmHg 57%
17:00 +27°C° 0 mm 3 m/s 737 mmHg 64%
18:00 +26°C° 0 mm 2 m/s 737 mmHg 71%
19:00 +24°C° 0 mm 2 m/s 737 mmHg 78%
20:00 +23°C° 0 mm 2 m/s 737 mmHg 81%
21:00 +21°C° 0 mm 2 m/s 737 mmHg 84%
22:00 +20°C° 0 mm 2 m/s 737 mmHg 88%
23:00 +20°C° 0 mm 2 m/s 737 mmHg 89%

Mâine, 6 Iulie, Luni

Timp Temperatura Precipitaţii Vânt Presiune Umiditate
00:00 +20°C° 0 mm 2 m/s 737 mmHg 90%
01:00 +19°C° 0 mm 2 m/s 736 mmHg 91%
02:00 +19°C° 0 mm 2 m/s 736 mmHg 92%
03:00 +19°C° 0 mm 2 m/s 736 mmHg 93%
04:00 +18°C° 0 mm 2 m/s 736 mmHg 94%
05:00 +20°C° 0 mm 2 m/s 736 mmHg 89%
06:00 +21°C° 0 mm 3 m/s 736 mmHg 83%
07:00 +22°C° 0 mm 3 m/s 736 mmHg 77%
08:00 +24°C° 0.2 mm 3 m/s 736 mmHg 75%
09:00 +25°C° 0.2 mm 3 m/s 735 mmHg 72%
10:00 +25°C° 0.2 mm 3 m/s 735 mmHg 70%
11:00 +26°C° 0.1 mm 4 m/s 735 mmHg 69%
12:00 +26°C° 0.1 mm 4 m/s 735 mmHg 68%
13:00 +26°C° 0.1 mm 4 m/s 734 mmHg 67%
14:00 +26°C° 0.2 mm 4 m/s 734 mmHg 67%
15:00 +25°C° 0.2 mm 4 m/s 734 mmHg 68%
16:00 +25°C° 0.2 mm 4 m/s 734 mmHg 68%
17:00 +22°C° 0 mm 3 m/s 734 mmHg 71%
18:00 +21°C° 0 mm 3 m/s 735 mmHg 74%
19:00 +20°C° 0 mm 2 m/s 735 mmHg 77%
20:00 +20°C° 0 mm 2 m/s 735 mmHg 74%
21:00 +19°C° 0 mm 3 m/s 735 mmHg 71%
22:00 +18°C° 0 mm 3 m/s 736 mmHg 68%
23:00 +18°C° 0 mm 4 m/s 736 mmHg 68%

Poimâine, 7 Iulie, Marţi

Timp Temperatura Precipitaţii Vânt Presiune Umiditate
00:00 +17°C° 0 mm 4 m/s 737 mmHg 67%
01:00 +15°C° 0 mm 4 m/s 737 mmHg 66%
02:00 +15°C° 0 mm 4 m/s 737 mmHg 65%
03:00 +15°C° 0 mm 4 m/s 737 mmHg 63%
04:00 +14°C° 0 mm 4 m/s 738 mmHg 62%
05:00 +15°C° 0 mm 4 m/s 738 mmHg 64%
06:00 +15°C° 0 mm 4 m/s 738 mmHg 67%
07:00 +15°C° 0 mm 4 m/s 738 mmHg 69%
08:00 +17°C° 0 mm 4 m/s 738 mmHg 67%
09:00 +17°C° 0 mm 4 m/s 739 mmHg 66%
10:00 +18°C° 0 mm 4 m/s 739 mmHg 64%
11:00 +18°C° 0.1 mm 4 m/s 739 mmHg 62%
12:00 +19°C° 0.1 mm 4 m/s 738 mmHg 60%
13:00 +19°C° 0.1 mm 5 m/s 738 mmHg 58%
14:00 +19°C° 0.1 mm 4 m/s 738 mmHg 59%
15:00 +19°C° 0.1 mm 4 m/s 738 mmHg 59%
16:00 +19°C° 0.1 mm 4 m/s 739 mmHg 60%
17:00 +18°C° 0.1 mm 4 m/s 739 mmHg 67%
18:00 +17°C° 0.1 mm 4 m/s 739 mmHg 73%
19:00 +16°C° 0.1 mm 3 m/s 739 mmHg 80%
20:00 +13°C° 0 mm 3 m/s 739 mmHg 82%
21:00 +13°C° 0 mm 2 m/s 739 mmHg 83%
22:00 +12°C° 0 mm 2 m/s 740 mmHg 85%
23:00 +10°C° 0 mm 2 m/s 740 mmHg 85%

8 Iulie, Miercuri

Timp Temperatura Precipitaţii Vânt Presiune Umiditate
00:00 +10°C° 0 mm 2 m/s 740 mmHg 85%
01:00 +10°C° 0 mm 1 m/s 740 mmHg 85%
02:00 +10°C° 0 mm 1 m/s 740 mmHg 86%
03:00 +10°C° 0 mm 1 m/s 740 mmHg 87%
04:00 +10°C° 0 mm 1 m/s 740 mmHg 88%
05:00 +12°C° 0 mm 2 m/s 740 mmHg 81%
06:00 +13°C° 0 mm 2 m/s 740 mmHg 75%
07:00 +15°C° 0 mm 2 m/s 740 mmHg 68%
08:00 +17°C° 0 mm 2 m/s 740 mmHg 63%
09:00 +18°C° 0 mm 2 m/s 740 mmHg 58%
10:00 +19°C° 0 mm 2 m/s 740 mmHg 52%
11:00 +20°C° 0 mm 2 m/s 740 mmHg 51%
12:00 +21°C° 0 mm 2 m/s 740 mmHg 49%
13:00 +21°C° 0 mm 2 m/s 740 mmHg 48%
14:00 +21°C° 0 mm 2 m/s 740 mmHg 51%
15:00 +21°C° 0 mm 2 m/s 739 mmHg 54%
16:00 +21°C° 0 mm 2 m/s 739 mmHg 57%
17:00 +19°C° 0.1 mm 2 m/s 739 mmHg 64%
18:00 +18°C° 0.1 mm 2 m/s 740 mmHg 71%
19:00 +17°C° 0.1 mm 2 m/s 740 mmHg 78%
20:00 +16°C° 0.1 mm 2 m/s 740 mmHg 82%
21:00 +15°C° 0.1 mm 1 m/s 740 mmHg 87%
22:00 +14°C° 0.1 mm 1 m/s 740 mmHg 91%
23:00 +14°C° 0 mm 1 m/s 740 mmHg 90%

9 Iulie, Joi

Timp Temperatura Precipitaţii Vânt Presiune Umiditate
00:00 +14°C° 0 mm 2 m/s 740 mmHg 90%
01:00 +13°C° 0 mm 2 m/s 741 mmHg 90%
02:00 +13°C° 0 mm 2 m/s 741 mmHg 92%
03:00 +12°C° 0 mm 2 m/s 741 mmHg 93%
04:00 +12°C° 0 mm 2 m/s 741 mmHg 95%
05:00 +13°C° 0 mm 2 m/s 741 mmHg 90%
06:00 +15°C° 0 mm 2 m/s 741 mmHg 86%
07:00 +16°C° 0 mm 2 m/s 742 mmHg 81%
08:00 +18°C° 0 mm 2 m/s 742 mmHg 74%
09:00 +19°C° 0 mm 2 m/s 742 mmHg 66%
10:00 +21°C° 0 mm 2 m/s 742 mmHg 58%
11:00 +22°C° 0 mm 1 m/s 742 mmHg 56%
12:00 +23°C° 0 mm 1 m/s 742 mmHg 55%
13:00 +23°C° 0 mm 1 m/s 741 mmHg 53%
14:00 +24°C° 0 mm 1 m/s 741 mmHg 52%
15:00 +24°C° 0 mm 1 m/s 741 mmHg 52%
16:00 +22°C° 0 mm 0 m/s 741 mmHg 52%
17:00 +23°C° 0 mm 1 m/s 741 mmHg 59%
18:00 +22°C° 0 mm 1 m/s 740 mmHg 66%
19:00 +20°C° 0 mm 1 m/s 740 mmHg 72%
20:00 +19°C° 0 mm 1 m/s 740 mmHg 75%
21:00 +17°C° 0 mm 2 m/s 740 mmHg 78%
22:00 +16°C° 0 mm 2 m/s 740 mmHg 81%
23:00 +15°C° 0 mm 2 m/s 740 mmHg 83%

10 Iulie, Vineri

Timp Temperatura Precipitaţii Vânt Presiune Umiditate
00:00 +15°C° 0 mm 2 m/s 740 mmHg 86%
01:00 +15°C° 0 mm 2 m/s 740 mmHg 88%
02:00 +15°C° 0 mm 2 m/s 740 mmHg 89%
03:00 +14°C° 0 mm 2 m/s 740 mmHg 90%
04:00 +14°C° 0 mm 2 m/s 739 mmHg 91%
05:00 +16°C° 0 mm 2 m/s 739 mmHg 87%
06:00 +17°C° 0 mm 3 m/s 739 mmHg 83%
07:00 +19°C° 0 mm 3 m/s 739 mmHg 79%
08:00 +20°C° 0 mm 3 m/s 739 mmHg 76%
09:00 +21°C° 0 mm 3 m/s 739 mmHg 74%
10:00 +21°C° 0 mm 3 m/s 739 mmHg 72%
11:00 +24°C° 0.1 mm 3 m/s 738 mmHg 68%
12:00 +25°C° 0.1 mm 3 m/s 738 mmHg 63%
13:00 +27°C° 0.1 mm 4 m/s 737 mmHg 59%
14:00 +27°C° 0.3 mm 4 m/s 737 mmHg 59%
15:00 +27°C° 0.3 mm 4 m/s 737 mmHg 59%
16:00 +28°C° 0.3 mm 4 m/s 737 mmHg 60%
17:00 +26°C° 0.3 mm 4 m/s 736 mmHg 67%
18:00 +25°C° 0.3 mm 3 m/s 736 mmHg 74%
19:00 +22°C° 0.3 mm 3 m/s 736 mmHg 81%
20:00 +21°C° 0.2 mm 3 m/s 736 mmHg 84%
21:00 +21°C° 0.2 mm 3 m/s 736 mmHg 86%
22:00 +20°C° 0.2 mm 3 m/s 736 mmHg 88%
23:00 +19°C° 0.3 mm 3 m/s 736 mmHg 89%
Arată mai mult